sat.trackr.live / text

‹ back to catalog

STARLINK-5297

NORAD 54158 · 2022-141B

PAYLOAD ACTIVE UNKNOWN

§ Identity

Operator
Country
US
Launch date
2022-10-28
Launch site
AFWTR
Launch vehicle
Mass (kg)
RCS (m²)

Purposes: comms

External: N2YO · Heavens-Above · Gunter

§ Orbital elements

Epoch: 2026-09-20T22:00:03.000096Z

Period
93.90 min
Inclination
53.1687°
Eccentricity
0.0000870
Mean motion
15.33549080 rev/d
Perigee alt
464.6 km
Apogee alt
465.8 km
Semi-major
6,843.4 km
B*
1.9930e-5
RAAN
215.5363°
Arg perigee
72.2007°
Mean anomaly
213.4654°
Rev number
580

§ Raw data

STARLINK-52971 54158U 22141B   26263.91670139  .00000283  00000+0  19930-4 0  99962 54158  53.1687 215.5363 0000870  72.2007 213.4654 15.33549080  5809

JSON: /api/v1/satellites/54158 · /tle

For live sub-satellite position, see the globe view (requires WebGL).

§ Visibility from observer

Set your observer location to see the next 7 days of passes ≥ 10°. The values pass through the URL so the page stays shareable.

No JS? Fill the form by hand. The geolocation button needs JavaScript.